Location: Ecklingerode
(51.5036°N, 10.3122°E)
Time: 01:54:23
(UTC+00:00)

CSL-04 Rocket - Pass Details

Date: 29 October 2020
Orbit: 805 x 861 km, 98.9° (Epoch: 23 November)

Event Time Altitude Azimuth Distance (km) Brightness Sun altitude
Rises 16:54:49 0° 128° (SE) 3,427 6.5 -9.6°
Reaches altitude 10° 16:57:26 10° 118° (ESE) 2,490 5.7 -10.0°
Maximum altitude 17:02:10 30° 59° (ENE) 1,485 4.5 -10.7°
Drops below altitude 10° 17:06:52 10° 0° (N) 2,479 6.1 -11.4°
Sets 17:09:28 0° 351° (N) 3,409 6.9 -11.8°
